User: anonymous
Location: Bandys
(35.4750°N, 81.0830°W)
Time: 11:39:42
(UTC-04:00)
Language:

DELTA 2 R/B (1) - Orbit

View from above orbital plane
View from above orbital plane
View from above satellite
View from above satellite

Ground track
Ground track

The orbit data is extracted from the following two-line orbital elements,

1 27665U 03005C   14260.28409582  .00000113  00000-0  78607-4 0  1118
2 27665 039.5752 181.3418 0010236 224.0623 276.9054 14.28218081607355
Epoch (UTC): 17 September 2014 06:49:05
Eccentricity: 0.0010236
inclination: 39.5752°
perigee height: 790 km
apogee height: 805 km
right ascension of ascending node: 181.3418°
argument of perigee: 224.0623°
revolutions per day: 14.28218081
mean anomaly at epoch: 276.9054°
orbit number at epoch: 60735

The dashed part of the orbit path shows where the satellite is in the earth's shadow,  

DLR